TimeCST,TemperatureF,Dew PointF,Humidity,Sea Level PressureIn,VisibilityMPH,Wind Direction,Wind SpeedMPH,Gust SpeedMPH,PrecipitationIn,Events,Conditions,WindDirDegrees,DateUTC
12:15 AM,35.6,25.9,68,29.98,10.0,North,6.9,-,N/A,,Overcast,10,2012-12-08 06:15:00
12:35 AM,35.1,25.5,68,29.97,10.0,NNE,8.1,-,N/A,,Overcast,20,2012-12-08 06:35:00
12:55 AM,34.9,25.2,68,29.97,10.0,NNE,8.1,-,N/A,,Overcast,30,2012-12-08 06:55:00
1:15 AM,34.7,25.0,68,29.96,10.0,NNE,6.9,-,N/A,,Overcast,30,2012-12-08 07:15:00
1:35 AM,34.5,24.8,68,29.96,10.0,NNE,6.9,-,N/A,,Overcast,20,2012-12-08 07:35:00
1:55 AM,34.7,24.3,66,29.97,10.0,North,6.9,-,N/A,,Overcast,10,2012-12-08 07:55:00
2:15 AM,34.0,24.3,68,29.97,10.0,North,6.9,-,N/A,,Overcast,360,2012-12-08 08:15:00
2:35 AM,34.0,23.9,67,29.98,10.0,North,5.8,-,N/A,,Overcast,360,2012-12-08 08:35:00
2:55 AM,32.9,23.9,69,29.98,10.0,North,6.9,-,N/A,,Mostly Cloudy,360,2012-12-08 08:55:00
3:15 AM,32.9,23.9,69,29.97,10.0,North,5.8,-,N/A,,Mostly Cloudy,10,2012-12-08 09:15:00
3:35 AM,33.3,24.6,71,29.97,10.0,North,4.6,-,N/A,,Overcast,10,2012-12-08 09:35:00
3:55 AM,32.7,24.4,72,29.97,10.0,North,5.8,-,N/A,,Overcast,10,2012-12-08 09:55:00
4:15 AM,33.4,24.6,70,29.98,10.0,Calm,Calm,-,N/A,,Overcast,0,2012-12-08 10:15:00
4:35 AM,32.4,24.3,72,29.98,10.0,North,5.8,-,N/A,,Mostly Cloudy,360,2012-12-08 10:35:00
4:55 AM,30.9,23.5,74,29.98,10.0,North,5.8,-,N/A,,Scattered Clouds,10,2012-12-08 10:55:00
5:15 AM,29.8,22.6,75,29.98,10.0,North,6.9,-,N/A,,Clear,10,2012-12-08 11:15:00
5:35 AM,29.1,22.5,76,29.99,10.0,North,4.6,-,N/A,,Clear,360,2012-12-08 11:35:00
5:55 AM,29.1,22.6,77,29.99,10.0,North,4.6,-,N/A,,Clear,10,2012-12-08 11:55:00
6:15 AM,27.5,21.7,79,30.00,10.0,NNE,4.6,-,N/A,,Clear,20,2012-12-08 12:15:00
6:35 AM,26.2,20.8,80,30.00,10.0,NNE,6.9,-,N/A,,Clear,20,2012-12-08 12:35:00
6:55 AM,26.6,21.4,81,30.01,10.0,NE,4.6,-,N/A,,Clear,50,2012-12-08 12:55:00
7:15 AM,25.2,19.9,81,30.01,10.0,NNE,5.8,-,N/A,,Clear,30,2012-12-08 13:15:00
7:35 AM,26.6,21.6,81,30.01,10.0,ENE,4.6,-,N/A,,Clear,60,2012-12-08 13:35:00
7:55 AM,26.6,21.7,82,30.01,10.0,NE,4.6,-,N/A,,Clear,50,2012-12-08 13:55:00
8:15 AM,28.2,23.0,81,30.01,10.0,NE,5.8,-,N/A,,Clear,40,2012-12-08 14:15:00
8:55 AM,32.0,25.2,76,30.02,10.0,ENE,4.6,-,N/A,,Clear,70,2012-12-08 14:55:00
9:15 AM,33.3,25.5,73,30.02,10.0,East,8.1,-,N/A,,Clear,80,2012-12-08 15:15:00
9:55 AM,34.3,25.0,69,30.03,10.0,East,9.2,-,N/A,,Clear,80,2012-12-08 15:55:00
10:15 AM,35.2,25.3,67,30.03,10.0,ENE,8.1,-,N/A,,Clear,70,2012-12-08 16:15:00
10:35 AM,35.6,25.3,66,30.03,10.0,East,8.1,-,N/A,,Clear,80,2012-12-08 16:35:00
10:55 AM,36.1,25.5,65,30.02,10.0,East,6.9,-,N/A,,Clear,90,2012-12-08 16:55:00
11:15 AM,36.7,25.7,64,30.01,10.0,East,5.8,-,N/A,,Clear,80,2012-12-08 17:15:00
11:35 AM,37.4,26.6,65,30.01,10.0,ESE,5.8,-,N/A,,Clear,110,2012-12-08 17:35:00
11:55 AM,37.8,26.6,64,30.01,10.0,ESE,4.6,-,N/A,,Clear,110,2012-12-08 17:55:00
12:15 PM,38.3,27.3,65,30.00,10.0,ESE,5.8,-,N/A,,Clear,120,2012-12-08 18:15:00
12:35 PM,38.3,27.5,65,29.99,10.0,East,5.8,-,N/A,,Clear,100,2012-12-08 18:35:00
12:55 PM,38.7,27.7,65,29.98,10.0,ESE,5.8,-,N/A,,Clear,110,2012-12-08 18:55:00
1:15 PM,38.8,27.5,64,29.98,10.0,ESE,8.1,-,N/A,,Clear,120,2012-12-08 19:15:00
1:35 PM,39.2,27.5,63,29.98,10.0,SE,9.2,-,N/A,,Clear,130,2012-12-08 19:35:00
1:55 PM,39.4,27.9,63,29.98,10.0,SE,6.9,-,N/A,,Clear,130,2012-12-08 19:55:00
2:15 PM,39.7,28.0,63,29.96,10.0,ESE,10.4,-,N/A,,Clear,120,2012-12-08 20:15:00
2:55 PM,40.1,28.0,62,29.96,10.0,ESE,8.1,-,N/A,,Clear,120,2012-12-08 20:55:00
3:15 PM,40.1,28.2,63,29.96,10.0,ESE,10.4,-,N/A,,Clear,120,2012-12-08 21:15:00
3:55 PM,39.7,28.8,65,29.96,10.0,ESE,9.2,-,N/A,,Clear,120,2012-12-08 21:55:00
4:15 PM,39.6,29.1,66,29.95,10.0,SE,9.2,-,N/A,,Clear,130,2012-12-08 22:15:00
4:35 PM,39.2,29.3,68,29.95,10.0,ESE,9.2,-,N/A,,Clear,120,2012-12-08 22:35:00
4:55 PM,38.3,29.3,70,29.94,10.0,ESE,8.1,-,N/A,,Clear,120,2012-12-08 22:55:00
5:15 PM,37.9,29.3,71,29.95,10.0,ESE,8.1,-,N/A,,Clear,120,2012-12-08 23:15:00
5:35 PM,37.8,29.3,72,29.96,10.0,SE,8.1,-,N/A,,Clear,130,2012-12-08 23:35:00
5:55 PM,37.9,29.7,72,29.96,10.0,SE,9.2,-,N/A,,Clear,130,2012-12-08 23:55:00
6:15 PM,38.3,30.2,73,29.96,10.0,SE,10.4,-,N/A,,Clear,130,2012-12-09 00:15:00
6:35 PM,38.3,30.7,74,29.96,10.0,SE,9.2,-,N/A,,Clear,130,2012-12-09 00:35:00
6:55 PM,38.3,31.1,75,29.96,10.0,SE,10.4,-,N/A,,Scattered Clouds,130,2012-12-09 00:55:00
7:15 PM,37.9,31.5,77,29.96,10.0,ESE,8.1,-,N/A,,Scattered Clouds,120,2012-12-09 01:15:00
7:35 PM,37.9,31.6,78,29.97,10.0,SSE,6.9,-,N/A,,Mostly Cloudy,150,2012-12-09 01:35:00
7:55 PM,38.3,32.0,78,29.97,7.0,SSE,8.1,-,N/A,,Unknown,150,2012-12-09 01:55:00
8:15 PM,36.5,32.7,86,29.97,1.5,SSE,6.9,-,N/A,Snow,Light Snow,150,2012-12-09 02:15:00
8:35 PM,36.1,32.9,88,29.96,1.5,ESE,5.8,-,0.01,Snow,Light Snow,120,2012-12-09 02:35:00
8:55 PM,36.0,33.1,89,29.96,1.0,SE,6.9,-,0.02,Snow,Light Snow,130,2012-12-09 02:55:00
9:15 PM,36.0,33.1,89,29.97,1.2,SE,6.9,-,N/A,Snow,Light Snow,130,2012-12-09 03:15:00
9:55 PM,36.1,33.4,90,29.95,2.5,ESE,10.4,-,0.01,,Overcast,110,2012-12-09 03:55:00
10:15 PM,36.1,33.4,90,29.95,2.5,ESE,9.2,-,N/A,,Overcast,110,2012-12-09 04:15:00
10:55 PM,35.8,33.1,90,29.93,2.5,ESE,11.5,-,N/A,,Overcast,110,2012-12-09 04:55:00
11:15 PM,35.8,33.1,90,29.94,3.0,ESE,11.5,-,N/A,,Overcast,120,2012-12-09 05:15:00
11:35 PM,36.3,33.4,89,29.94,4.0,SE,12.7,-,N/A,,Overcast,130,2012-12-09 05:35:00
11:55 PM,36.5,33.8,90,29.94,5.0,ESE,10.4,-,N/A,,Overcast,120,2012-12-09 05:55:00